Weather History for KMOD - January, 2014

Change the Weather History Date:

Monday, January 20, 2014

  Actual Average Record
Temperature  
Mean Temperature 50 °F -  
Max Temperature 68 °F 56 °F 69 °F (2009)
Min Temperature 31 °F 40 °F 24 °F (1937)
Degree Days  
Heating Degree Days 15 17  
Month to date heating degree days 312 357  
Since 1 July heating degree days 1289 1254  
Cooling Degree Days 0 0  
Month to date cooling degree days 0 0  
Year to date cooling degree days 0 0  
Moisture  
Dew Point 32 °F    
Average Humidity 60    
Maximum Humidity 96    
Minimum Humidity 24    
Precipitation  
Precipitation 0.00 in 0.09 in 0.81 in (1964)
Month to date precipitation T 1.66  
Year to date precipitation T 1.66  
Since 1 July precipitation 1.49  
Snow  
Snow 0.00 in - 0.00 in (2002)
Month to date snowfall 0.0  
Since 1 July snowfall 0.0  
Snow Depth -    
Sea Level Pressure  
Sea Level Pressure 30.17 in    
Wind  
Wind Speed 1 mph (ESE)    
Max Wind Speed 5 mph    
Max Gust Speed -    
Visibility 5 miles    
Events      
T = Trace of Precipitation, MM = Missing Value Source: NWS Daily Summary

Daily Weather History Graph

Daily Weather History Graph

Search for Another Location

Airport or City:

Trip Planner

Search our weather history database for the weather conditions in past years. The results will help you decide how hot, cold, wet, or windy it might be!

Date:

Astronomy

Jan. 20, 2014 Rise Set
Actual Time 7:15 AM PST 5:14 PM PST
Civil Twilight 6:47 AM PST 5:42 PM PST
Nautical Twilight 6:15 AM PST 6:14 PM PST
Astronomical Twilight 5:44 AM PST 6:46 PM PST
Moon 9:48 PM PST (1/20) 9:23 AM PST (1/20)
Length of Visible Light 10h 55m
Length of Day
9h 59m
Waning Gibbous, 82% of the Moon is Illuminated
Jan 20
Waning Gibbous
Jan 23
Last Quarter
Jan 30
New
Feb 6
First Quarter
Feb 14
Full

Hourly Weather History & Observations

Time (PST) Temp. Windchill Dew Point Humidity Pressure Visibility Wind Dir Wind Speed Gust Speed Precip Events Conditions
12:53 AM 37.9 °F - 33.1 °F 83% 30.13 in 4.0 mi Calm Calm - N/A   Haze
1:53 AM 36.0 °F - 33.1 °F 89% 30.13 in 3.0 mi Calm Calm - N/A   Clear
2:30 AM 33.8 °F 29.6 °F 32.0 °F 93% 30.14 in 2.5 mi ESE 4.6 mph - N/A   Clear
2:53 AM 34.0 °F - 32.0 °F 92% 30.15 in 2.5 mi Calm Calm - N/A   Clear
3:29 AM 35.6 °F - 32.0 °F 87% 30.14 in 3.0 mi Calm Calm - N/A   Clear
3:36 AM 35.6 °F - 32.0 °F 87% 30.15 in 2.5 mi Calm Calm - N/A   Clear
3:53 AM 35.1 °F - 32.0 °F 89% 30.14 in 3.0 mi Calm Calm - N/A   Clear
4:03 AM 33.8 °F - 32.0 °F 93% 30.14 in 2.5 mi Calm Calm - N/A   Clear
4:53 AM 32.0 °F 28.7 °F 30.0 °F 92% 30.15 in 2.5 mi ESE 3.5 mph - N/A   Clear
5:31 AM 32.0 °F 27.5 °F 30.2 °F 93% 30.15 in 1.8 mi ESE 4.6 mph - N/A   Clear
5:39 AM 32.0 °F 28.7 °F 30.2 °F 93% 30.15 in 2.5 mi ESE 3.5 mph - N/A   Clear
5:53 AM 32.0 °F - 30.0 °F 92% 30.16 in 2.5 mi Calm Calm - N/A   Clear
6:14 AM 32.0 °F - 30.2 °F 93% 30.16 in 1.8 mi Calm Calm - N/A   Clear
6:21 AM 32.0 °F - 30.2 °F 93% 30.16 in 2.5 mi Calm Calm - N/A   Clear
6:37 AM 32.0 °F - 30.2 °F 93% 30.16 in 3.0 mi Calm Calm - N/A   Clear
6:44 AM 32.0 °F - 30.2 °F 93% 30.16 in 2.5 mi Calm Calm - N/A   Clear
6:53 AM 32.0 °F - 28.9 °F 88% 30.17 in 3.0 mi Calm Calm - N/A   Clear
7:13 AM 32.0 °F - 30.2 °F 93% 30.17 in 3.0 mi North - - N/A   Clear
7:53 AM 32.0 °F 27.5 °F 30.0 °F 92% 30.18 in 3.0 mi ESE 4.6 mph - N/A   Clear
8:53 AM 39.9 °F - 34.0 °F 79% 30.20 in 3.0 mi Calm Calm - N/A   Haze
9:00 AM 41.0 °F - 35.6 °F 81% 30.20 in 3.0 mi Calm Calm - N/A   Haze
9:09 AM 42.8 °F - 35.6 °F 76% 30.20 in 3.0 mi Calm Calm - N/A   Haze
9:53 AM 48.0 °F - 36.0 °F 63% 30.22 in 3.0 mi Calm Calm - N/A   Haze
10:53 AM 55.9 °F - 35.1 °F 45% 30.22 in 5.0 mi Variable 3.5 mph - N/A   Haze
11:53 AM 60.1 °F - 33.1 °F 36% 30.20 in 6.0 mi Variable 3.5 mph - N/A   Haze
12:53 PM 64.0 °F - 30.9 °F 29% 30.17 in 10.0 mi North - - N/A   Clear
1:53 PM 64.9 °F - 30.0 °F 27% 30.15 in 10.0 mi Variable 3.5 mph - N/A   Clear
2:53 PM 68.0 °F - 30.9 °F 25% 30.16 in 10.0 mi Calm Calm - N/A   Clear
3:53 PM 66.9 °F - 30.0 °F 25% 30.16 in 10.0 mi Calm Calm - N/A   Clear
4:53 PM 64.9 °F - 30.9 °F 28% 30.17 in 10.0 mi North - - N/A   Clear
5:53 PM 59.0 °F - 32.0 °F 36% 30.17 in 10.0 mi Calm Calm - N/A   Clear
6:53 PM 52.0 °F - 33.1 °F 49% 30.18 in 10.0 mi Calm Calm - N/A   Clear
7:53 PM 48.0 °F - 33.1 °F 56% 30.19 in 10.0 mi Calm Calm - N/A   Clear
8:53 PM 44.1 °F - 34.0 °F 68% 30.20 in 10.0 mi Calm Calm - N/A   Clear
9:53 PM 41.0 °F 39.0 °F 33.1 °F 73% 30.22 in 9.0 mi ESE 3.5 mph - N/A   Clear
10:53 PM 39.0 °F 36.8 °F 32.0 °F 76% 30.24 in 7.0 mi ESE 3.5 mph - N/A   Clear
11:53 PM 37.9 °F - 32.0 °F 79% 30.24 in 8.0 mi Calm Calm - N/A   Clear